This is the latest recevied weather packets stored in our database for station/object K8BCO. If no packets are shown the sender has not sent any weather packets the latest 10 day(s).
| Time | Temp. | Humidity | Pressure | Rain* | Wind** | Luminosity | Snow |
|---|---|---|---|---|---|---|---|
| 1777494321 | 4.44° C | 79% | 1015 hPa | 0 mm | - | 393 W/m² | - |
| 1777493718 | 4.44° C | 79% | 1015.3 hPa | 0 mm | - | 223 W/m² | - |
| 1777493118 | 5° C | 77% | 1015.2 hPa | 0 mm | - | 277 W/m² | - |
| 1777492518 | 5° C | 77% | 1015.2 hPa | 0 mm | - | 328 W/m² | - |
| 1777491919 | 5° C | 77% | 1015.2 hPa | 0 mm | - | 384 W/m² | - |
| 1777491318 | 4.44° C | 78% | 1015.2 hPa | 0 mm | - | 479 W/m² | - |
| 1777490719 | 4.44° C | 78% | 1015.2 hPa | 0 mm | - | 366 W/m² | - |
| 1777490116 | 4.44° C | 78% | 1015.3 hPa | 0 mm | - | 277 W/m² | - |
| 1777489516 | 5° C | 77% | 1015.3 hPa | 0 mm | - | 355 W/m² | - |
| 1777488916 | 5° C | 76% | 1015.3 hPa | 0 mm | - | 353 W/m² | - |
| 1777488316 | 5° C | 75% | 1015.4 hPa | 0 mm | - | 366 W/m² | - |
| 1777487716 | 5° C | 76% | 1015.4 hPa | 0 mm | - | 385 W/m² | - |
| 1777487116 | 5° C | 75% | 1015.3 hPa | 0 mm | - | 425 W/m² | - |
| 1777486517 | 5° C | 76% | 1015.5 hPa | 0 mm | - | 421 W/m² | - |
| 1777485916 | 5° C | 75% | 1015.5 hPa | 0 mm | - | 422 W/m² | - |
| 1777485317 | 5° C | 75% | 1015.5 hPa | 0 mm | - | 502 W/m² | - |
| 1777484717 | 5° C | 75% | 1015.6 hPa | 0 mm | - | 479 W/m² | - |
| 1777484118 | 5.56° C | 73% | 1015.6 hPa | 0 mm | - | 551 W/m² | - |
| 1777483517 | 6.11° C | 73% | 1015.6 hPa | 0 mm | - | 532 W/m² | - |
| 1777482917 | 6.11° C | 73% | 1015.6 hPa | 0 mm | - | 599 W/m² | - |
| 1777482318 | 6.11° C | 72% | 1015.6 hPa | 0 mm | - | 876 W/m² | - |
| 1777481717 | 6.11° C | 73% | 1015.6 hPa | 0 mm | - | 753 W/m² | - |
| 1777481119 | 5.56° C | 73% | 1015.7 hPa | 0 mm | - | 646 W/m² | - |
| 1777480518 | 6.11° C | 73% | 1015.7 hPa | 0 mm | - | 525 W/m² | - |
| 1777479918 | 5.56° C | 73% | 1015.8 hPa | 0 mm | - | 533 W/m² | - |
* Rain latest hour (hover to see other rain measurements)
** Current wind speed in m/s (hover to see current wind gust speed)